| time (UTC) | temp C | wind direction | speed KPH | gust KPH | rain 1hr cm | rain 24hr cm | rain mn cm | humidity % | barometer mb |
| 20260510104253 | 18 | 353 | 0.0 | 1.6 | 0.00 | 0.33 | 0.00 | 98 | 1016.7 |
| 20260510103753 | 18 | 0 | 0.0 | 3.2 | 0.00 | 0.38 | 0.00 | 98 | 1016.4 |
| 20260510103253 | 18 | 352 | 0.0 | 3.2 | 0.00 | 0.41 | 0.00 | 98 | 1016.4 |
| 20260510102737 | 18 | 0 | 0.0 | 3.2 | 0.00 | 0.46 | 0.00 | 98 | 1016.5 |
| 20260510102237 | 18 | 0 | 0.0 | 3.2 | 0.00 | 0.53 | 0.00 | 98 | 1016.4 |
| 20260510101737 | 18 | 0 | 0.0 | 3.2 | 0.00 | 0.56 | 0.00 | 98 | 1016.3 |
| 20260510101457 | 18 | 0 | 1.6 | 3.2 | 0.00 | 0.56 | 0.00 | 98 | 1016.2 |
| 20260510100958 | 18 | 18 | 1.6 | 3.2 | 0.00 | 0.56 | 0.00 | 98 | 1016.0 |
| 20260510100237 | 18 | 29 | 1.6 | 3.2 | 0.00 | 0.58 | 0.00 | 98 | 1016.0 |
| 20260510095739 | 18 | 15 | 0.0 | 3.2 | 0.00 | 0.61 | 0.00 | 98 | 1015.9 |
| 20260510095241 | 18 | 0 | 0.0 | 3.2 | 0.00 | 0.64 | 0.00 | 98 | 1016.0 |
| 20260510094741 | 18 | 0 | 0.0 | 3.2 | 0.00 | 0.81 | 0.00 | 98 | 1016.0 |
| 20260510094241 | 18 | 0 | 0.0 | 0.0 | 0.00 | 0.94 | 0.00 | 98 | 1016.0 |
| 20260510093742 | 18 | 0 | 0.0 | 0.0 | 0.00 | 1.07 | 0.00 | 98 | 1015.9 |
| 20260510093241 | 18 | 0 | 0.0 | 1.6 | 0.00 | 1.42 | 0.00 | 98 | 1015.8 |
| 20260510093226 | 18 | 0 | 1.6 | 3.2 | 0.00 | 1.65 | 0.00 | 98 | 1015.7 |
| 20260510092230 | 18 | 338 | 1.6 | 3.2 | 0.00 | 1.83 | 0.00 | 98 | 1015.7 |
| 20260510091938 | 18 | 297 | 0.0 | 3.2 | 0.00 | 2.08 | 0.00 | 98 | 1015.6 |
| 20260510091210 | 18 | 0 | 0.0 | 3.2 | 0.00 | 2.26 | 0.00 | 98 | 1015.5 |
| 20260510090709 | 18 | 0 | 1.6 | 3.2 | 0.00 | 2.26 | 0.00 | 98 | 1015.5 |
| 20260510090430 | 18 | 15 | 1.6 | 3.2 | 0.00 | 2.29 | 0.00 | 98 | 1015.3 |
| 20260510085714 | 18 | 6 | 0.0 | 3.2 | 0.00 | 2.36 | 0.00 | 98 | 1015.2 |
| 20260510085209 | 18 | 0 | 0.0 | 1.6 | 0.00 | 2.41 | 0.00 | 98 | 1015.2 |
| 20260510084710 | 18 | 0 | 0.0 | 0.0 | 0.00 | 2.69 | 0.00 | 98 | 1015.2 |
| 20260510084211 | 18 | 0 | 0.0 | 3.2 | 0.00 | 2.77 | 0.00 | 98 | 1015.1 |
| 20260510083713 | 18 | 0 | 0.0 | 3.2 | 0.00 | 3.05 | 0.00 | 98 | 1015.4 |
| 20260510083210 | 18 | 358 | 0.0 | 3.2 | 0.00 | 3.71 | 0.00 | 98 | 1015.3 |
| 20260510082711 | 18 | 319 | 1.6 | 3.2 | 0.00 | 3.94 | 0.00 | 98 | 1015.2 |
| 20260510082248 | 18 | 328 | 1.6 | 3.2 | 0.00 | 3.96 | 0.00 | 98 | 1015.0 |
| 20260510081157 | 18 | 18 | 0.0 | 3.2 | 0.00 | 3.96 | 0.00 | 98 | 1014.9 |
| 20260510080655 | 18 | 0 | 0.0 | 1.6 | 0.00 | 3.96 | 0.00 | 98 | 1014.8 |
| 20260510080156 | 18 | 0 | 0.0 | 3.2 | 0.00 | 3.96 | 0.00 | 98 | 1014.8 |
| 20260510075639 | 18 | 21 | 0.0 | 3.2 | 0.00 | 3.99 | 0.00 | 98 | 1014.8 |
| 20260510075139 | 18 | 0 | 0.0 | 0.0 | 0.00 | 4.04 | 0.00 | 98 | 1014.8 |
| 20260510074904 | 18 | 0 | 0.0 | 0.0 | 0.00 | 4.04 | 0.00 | 98 | 1014.8 |
| 20260510074236 | 17 | 0 | 0.0 | 1.6 | 0.00 | 4.04 | 0.00 | 98 | 1014.8 |
| 20260510073139 | 17 | 0 | 0.0 | 1.6 | 0.00 | 4.04 | 0.00 | 98 | 1014.8 |
| 20260510072639 | 17 | 5 | 0.0 | 1.6 | 0.00 | 4.04 | 0.00 | 98 | 1014.7 |
| 20260510072140 | 17 | 0 | 0.0 | 3.2 | 0.00 | 4.04 | 0.00 | 98 | 1014.8 |
| 20260510071640 | 17 | 0 | 0.0 | 3.2 | 0.00 | 4.04 | 0.00 | 98 | 1014.9 |
| 20260510071139 | 17 | 0 | 0.0 | 0.0 | 0.00 | 4.04 | 0.00 | 98 | 1014.9 |
| 20260510070639 | 17 | 0 | 0.0 | 0.0 | 0.00 | 4.04 | 0.00 | 98 | 1014.8 |
| 20260510070139 | 17 | 0 | 0.0 | 0.0 | 0.00 | 4.04 | 0.00 | 98 | 1014.9 |
| 20260510065639 | 17 | 0 | 0.0 | 0.0 | 0.00 | 4.04 | 0.00 | 98 | 1015.0 |
| 20260510065140 | 17 | 0 | 0.0 | 0.0 | 0.00 | 4.04 | 0.00 | 98 | 1014.9 |
| 20260510064640 | 17 | 0 | 0.0 | 0.0 | 0.00 | 4.04 | 0.00 | 98 | 1015.0 |
| 20260510064127 | 17 | 0 | 0.0 | 1.6 | 0.00 | 4.04 | 0.00 | 98 | 1015.0 |
| 20260510063626 | 17 | 0 | 0.0 | 1.6 | 0.00 | 4.04 | 0.00 | 98 | 1015.0 |
| 20260510063126 | 17 | 351 | 0.0 | 1.6 | 0.00 | 4.04 | 0.00 | 98 | 1015.0 |
| 20260510062626 | 17 | 0 | 0.0 | 0.0 | 0.00 | 4.04 | 0.00 | 97 | 1015.0 |
| 20260510062128 | 17 | 0 | 0.0 | 0.0 | 0.00 | 4.04 | 0.00 | 98 | 1014.9 |
| 20260510061627 | 17 | 0 | 0.0 | 0.0 | 0.00 | 4.04 | 0.00 | 98 | 1014.8 |
| 20260510061127 | 17 | 0 | 0.0 | 0.0 | 0.00 | 4.04 | 0.00 | 97 | 1014.8 |
| 20260510060853 | 17 | 0 | 0.0 | 0.0 | 0.00 | 4.04 | 0.00 | 98 | 1014.8 |
| 20260510060127 | 17 | 0 | 0.0 | 3.2 | 0.00 | 4.04 | 0.00 | 97 | 1014.8 |
| 20260510055626 | 17 | 0 | 1.6 | 3.2 | 0.00 | 4.04 | 0.00 | 97 | 1014.9 |
| 20260510055132 | 18 | 9 | 0.0 | 3.2 | 0.00 | 4.04 | 0.00 | 97 | 1014.8 |
| 20260510054627 | 18 | 0 | 0.0 | 0.0 | 0.00 | 4.04 | 0.00 | 97 | 1014.7 |
| 20260510054128 | 18 | 0 | 0.0 | 0.0 | 0.00 | 4.04 | 0.00 | 97 | 1014.7 |
| 20260510053627 | 18 | 0 | 0.0 | 3.2 | 0.00 | 4.04 | 0.00 | 97 | 1014.8 |
| 20260510053132 | 18 | 0 | 0.0 | 3.2 | 0.00 | 4.04 | 0.00 | 97 | 1014.8 |
| 20260510052612 | 18 | 27 | 0.0 | 3.2 | 0.00 | 4.04 | 0.00 | 97 | 1014.7 |
| 20260510052333 | 18 | 0 | 0.0 | 0.0 | 0.00 | 4.04 | 0.00 | 97 | 1014.7 |
| 20260510051613 | 18 | 0 | 0.0 | 0.0 | 0.00 | 4.04 | 0.00 | 97 | 1014.6 |
| 20260510051112 | 18 | 0 | 0.0 | 0.0 | 0.00 | 4.04 | 0.00 | 97 | 1014.7 |
| 20260510050612 | 18 | 0 | 0.0 | 1.6 | 0.00 | 4.04 | 0.00 | 97 | 1014.7 |
| 20260510050552 | 18 | 9 | 0.0 | 1.6 | 0.00 | 4.04 | 0.00 | 97 | 1014.6 |
| 20260510045613 | 18 | 0 | 0.0 | 0.0 | 0.00 | 4.04 | 4.04 | 97 | 1014.5 |
| 20260510045113 | 18 | 0 | 0.0 | 1.6 | 0.00 | 4.04 | 4.04 | 97 | 1014.5 |
| 20260510044844 | 18 | 0 | 0.0 | 3.2 | 0.00 | 4.04 | 4.04 | 97 | 1014.5 |
| 20260510044113 | 18 | 0 | 1.6 | 3.2 | 0.00 | 4.04 | 4.04 | 97 | 1014.5 |
| 20260510043613 | 18 | 13 | 0.0 | 3.2 | 0.00 | 4.04 | 4.04 | 97 | 1014.6 |
| 20260510043116 | 18 | 0 | 0.0 | 0.0 | 0.00 | 4.04 | 4.04 | 97 | 1014.6 |
| 20260510042616 | 18 | 0 | 0.0 | 0.0 | 0.00 | 4.04 | 4.04 | 97 | 1014.7 |
| 20260510042115 | 19 | 0 | 0.0 | 0.0 | 0.00 | 4.04 | 4.04 | 97 | 1014.8 |
| 20260510041616 | 19 | 0 | 0.0 | 1.6 | 0.00 | 4.04 | 4.04 | 97 | 1014.9 |
| 20260510041329 | 19 | 0 | 0.0 | 1.6 | 0.00 | 4.04 | 4.04 | 97 | 1014.9 |
| 20260510040829 | 19 | 0 | 0.0 | 1.6 | 0.00 | 4.04 | 4.04 | 97 | 1014.9 |
| 20260510035601 | 19 | 0 | 0.0 | 1.6 | 0.00 | 4.04 | 4.04 | 96 | 1014.9 |
| 20260510035102 | 19 | 2 | 0.0 | 1.6 | 0.00 | 4.04 | 4.04 | 96 | 1014.9 |
| 20260510034823 | 20 | 0 | 0.0 | 0.0 | 0.00 | 4.04 | 4.04 | 96 | 1014.9 |
| 20260510034102 | 20 | 0 | 0.0 | 0.0 | 0.00 | 4.04 | 4.04 | 96 | 1014.9 |
| 20260510033828 | 20 | 0 | 0.0 | 0.0 | 0.00 | 4.04 | 4.04 | 96 | 1015.0 |
| 20260510033102 | 20 | 0 | 0.0 | 0.0 | 0.00 | 4.04 | 4.04 | 96 | 1015.0 |
| 20260510032602 | 20 | 0 | 0.0 | 0.0 | 0.00 | 4.04 | 4.04 | 96 | 1014.9 |
| 20260510032102 | 20 | 0 | 0.0 | 0.0 | 0.00 | 4.04 | 4.04 | 96 | 1014.8 |
| 20260510031601 | 20 | 0 | 0.0 | 0.0 | 0.00 | 4.04 | 4.04 | 96 | 1014.7 |
| 20260510031102 | 20 | 0 | 0.0 | 0.0 | 0.00 | 4.04 | 4.04 | 96 | 1014.6 |
| 20260510030602 | 20 | 0 | 0.0 | 1.6 | 0.00 | 4.04 | 4.04 | 95 | 1014.4 |
| 20260510025544 | 20 | 357 | 0.0 | 1.6 | 0.00 | 4.04 | 4.04 | 95 | 1014.3 |
| 20260510025047 | 20 | 25 | 0.0 | 1.6 | 0.00 | 4.04 | 4.04 | 95 | 1014.2 |
| 20260510024548 | 20 | 0 | 0.0 | 1.6 | 0.00 | 4.04 | 4.04 | 95 | 1014.1 |
| 20260510024046 | 21 | 0 | 0.0 | 1.6 | 0.00 | 4.04 | 4.04 | 94 | 1013.9 |
| 20260510023546 | 21 | 7 | 0.0 | 1.6 | 0.00 | 4.04 | 4.04 | 94 | 1013.8 |
| 20260510023310 | 21 | 0 | 0.0 | 1.6 | 0.00 | 4.04 | 4.04 | 94 | 1013.8 |
| 20260510022813 | 21 | 0 | 0.0 | 3.2 | 0.00 | 4.04 | 4.04 | 93 | 1013.8 |
| 20260510022046 | 21 | 0 | 1.6 | 3.2 | 0.00 | 4.04 | 4.04 | 93 | 1013.6 |
| 20260510021546 | 21 | 0 | 1.6 | 3.2 | 0.00 | 4.04 | 4.04 | 92 | 1013.7 |
| 20260510021046 | 21 | 15 | 0.0 | 1.6 | 0.00 | 4.04 | 4.04 | 92 | 1013.6 |
| 20260510020546 | 21 | 0 | 0.0 | 3.2 | 0.00 | 4.04 | 4.04 | 92 | 1013.6 |
| 20260510020046 | 21 | 31 | 1.6 | 6.4 | 0.00 | 4.04 | 4.04 | 91 | 1013.6 |
| 20260510015530 | 21 | 353 | 1.6 | 6.4 | 0.00 | 4.04 | 4.04 | 91 | 1013.7 |
| 20260510015030 | 21 | 332 | 1.6 | 8.0 | 0.00 | 4.04 | 4.04 | 91 | 1013.7 |
| 20260510014522 | 21 | 40 | 3.2 | 8.0 | 0.00 | 4.04 | 4.04 | 91 | 1013.7 |
| 20260510014019 | 21 | 309 | 3.2 | 6.4 | 0.00 | 4.04 | 4.04 | 91 | 1013.6 |
| 20260510013515 | 21 | 269 | 3.2 | 8.0 | 0.00 | 4.04 | 4.04 | 91 | 1013.6 |
| 20260510013015 | 21 | 305 | 3.2 | 8.0 | 0.00 | 4.04 | 4.04 | 91 | 1013.4 |
| 20260510012516 | 22 | 290 | 3.2 | 8.0 | 0.00 | 4.04 | 4.04 | 92 | 1013.2 |
| 20260510012017 | 22 | 322 | 1.6 | 3.2 | 0.00 | 4.04 | 4.04 | 93 | 1013.0 |
| 20260510011517 | 22 | 0 | 1.6 | 4.8 | 0.00 | 4.04 | 4.04 | 93 | 1012.9 |
| 20260510011015 | 22 | 50 | 0.0 | 4.8 | 0.00 | 4.04 | 4.04 | 94 | 1012.8 |
| 20260510010515 | 22 | 0 | 0.0 | 3.2 | 0.00 | 4.04 | 4.04 | 94 | 1012.7 |
| 20260510010242 | 22 | 0 | 0.0 | 0.0 | 0.00 | 4.04 | 4.04 | 94 | 1012.5 |
| 20260510005516 | 22 | 0 | 0.0 | 0.0 | 0.00 | 4.04 | 4.04 | 94 | 1012.4 |
| 20260510005246 | 22 | 0 | 0.0 | 0.0 | 0.00 | 4.04 | 4.04 | 94 | 1012.3 |
| 20260510004515 | 22 | 0 | 0.0 | 0.0 | 0.00 | 4.04 | 4.04 | 93 | 1012.1 |
| 20260510004016 | 22 | 0 | 0.0 | 0.0 | 0.00 | 4.04 | 4.04 | 93 | 1012.1 |
| 20260510003512 | 22 | 0 | 0.0 | 0.0 | 0.00 | 4.04 | 4.04 | 92 | 1012.0 |
| 20260510003232 | 22 | 0 | 0.0 | 1.6 | 0.00 | 4.04 | 4.04 | 93 | 1012.0 |
| 20260510002512 | 22 | 0 | 0.0 | 1.6 | 0.00 | 4.04 | 4.04 | 93 | 1011.9 |
| 20260510002012 | 22 | 0 | 0.0 | 0.0 | 0.00 | 4.04 | 4.04 | 92 | 1011.9 |
| 20260510001738 | 22 | 0 | 0.0 | 0.0 | 0.00 | 4.04 | 4.04 | 92 | 1011.9 |
| 20260510001012 | 22 | 0 | 0.0 | 0.0 | 0.00 | 4.04 | 4.04 | 92 | 1011.8 |
| 20260510000508 | 22 | 0 | 0.0 | 0.0 | 0.00 | 4.04 | 4.04 | 91 | 1011.8 |
| 20260510000008 | 23 | 0 | 0.0 | 0.0 | 0.00 | 4.04 | 4.04 | 91 | 1011.8 |
| 20260509235729 | 23 | 0 | 0.0 | 0.0 | 0.00 | 4.04 | 4.04 | 90 | 1011.9 |
| 20260509235007 | 23 | 0 | 0.0 | 0.0 | 0.00 | 4.04 | 4.04 | 89 | 1011.9 |
| 20260509234735 | 23 | 0 | 0.0 | 1.6 | 0.00 | 4.04 | 4.04 | 89 | 1011.9 |
| 20260509234007 | 23 | 0 | 0.0 | 1.6 | 0.00 | 4.04 | 4.04 | 89 | 1011.9 |
| 20260509233508 | 23 | 0 | 0.0 | 0.0 | 0.00 | 4.04 | 4.04 | 87 | 1011.8 |
| 20260509233006 | 24 | 0 | 0.0 | 0.0 | 0.00 | 4.04 | 4.04 | 86 | 1011.8 |
| 20260509232950 | 25 | 0 | 0.0 | 3.2 | 0.00 | 4.04 | 4.04 | 85 | 1011.6 |
| 20260509232226 | 25 | 0 | 0.0 | 3.2 | 0.00 | 4.04 | 4.04 | 82 | 1011.5 |
| 20260509231508 | 25 | 0 | 0.0 | 3.2 | 0.00 | 4.04 | 4.04 | 84 | 1011.4 |
| 20260509231008 | 25 | 0 | 0.0 | 3.2 | 0.00 | 4.04 | 4.04 | 80 | 1011.5 |
| 20260509231000 | 25 | 0 | 0.0 | 3.2 | 0.00 | 4.04 | 4.04 | 81 | 1011.4 |
| 20260509230236 | 25 | 0 | 0.0 | 1.6 | 0.00 | 4.04 | 4.04 | 82 | 1011.4 |
| 20260509225508 | 25 | 0 | 0.0 | 1.6 | 0.00 | 4.04 | 4.04 | 80 | 1011.4 |
| 20260509225007 | 24 | 0 | 0.0 | 4.8 | 0.00 | 4.04 | 4.04 | 83 | 1011.4 |
| 20260509224950 | 25 | 0 | 0.0 | 4.8 | 0.00 | 4.04 | 4.04 | 81 | 1011.5 |
| 20260509224231 | 25 | 53 | 1.6 | 4.8 | 0.00 | 4.04 | 4.04 | 79 | 1011.4 |
| 20260509223503 | 25 | 352 | 1.6 | 4.8 | 0.00 | 4.04 | 4.04 | 77 | 1011.3 |
| 20260509223004 | 25 | 327 | 1.6 | 4.8 | 0.00 | 4.04 | 4.04 | 79 | 1011.3 |
| 20260509222450 | 25 | 23 | 1.6 | 4.8 | 0.00 | 4.04 | 4.04 | 81 | 1011.2 |
| 20260509221947 | 24 | 349 | 1.6 | 4.8 | 0.00 | 4.04 | 4.04 | 81 | 1011.3 |
| 20260509221713 | 24 | 0 | 1.6 | 3.2 | 0.00 | 4.04 | 4.04 | 83 | 1011.2 |
| 20260509220946 | 23 | 314 | 3.2 | 6.4 | 0.00 | 4.04 | 4.04 | 83 | 1011.1 |
| 20260509220716 | 23 | 4 | 1.6 | 6.4 | 0.00 | 4.04 | 4.04 | 83 | 1011.3 |
| 20260509215946 | 23 | 353 | 0.0 | 3.2 | 0.00 | 4.04 | 4.04 | 86 | 1011.3 |
| 20260509215446 | 23 | 0 | 0.0 | 3.2 | 0.00 | 4.04 | 4.04 | 85 | 1011.2 |
| 20260509214938 | 23 | 27 | 0.0 | 3.2 | 0.00 | 4.04 | 4.04 | 83 | 1011.4 |
| 20260509214433 | 23 | 321 | 0.0 | 3.2 | 0.00 | 4.04 | 4.04 | 83 | 1011.5 |
| 20260509213933 | 23 | 0 | 1.6 | 4.8 | 0.00 | 4.04 | 4.04 | 81 | 1011.4 |
| 20260509213708 | 23 | 0 | 1.6 | 4.8 | 0.00 | 4.04 | 4.04 | 82 | 1011.4 |
| 20260509212919 | 23 | 281 | 1.6 | 4.8 | 0.00 | 4.04 | 4.04 | 84 | 1011.4 |
| 20260509212419 | 23 | 268 | 1.6 | 4.8 | 0.00 | 4.04 | 4.04 | 83 | 1011.5 |
| 20260509211918 | 23 | 0 | 1.6 | 4.8 | 0.00 | 4.04 | 4.04 | 84 | 1011.6 |
| 20260509211418 | 23 | 346 | 1.6 | 3.2 | 0.00 | 4.04 | 4.04 | 84 | 1011.7 |
| 20260509210918 | 23 | 0 | 1.6 | 3.2 | 0.00 | 4.04 | 4.04 | 86 | 1011.7 |
| 20260509210419 | 23 | 0 | 0.0 | 3.2 | 0.00 | 4.04 | 4.04 | 85 | 1011.5 |
| 20260509210140 | 23 | 0 | 0.0 | 1.6 | 0.00 | 4.04 | 4.04 | 85 | 1011.6 |
| 20260509205419 | 23 | 351 | 0.0 | 1.6 | 0.00 | 4.04 | 4.04 | 83 | 1011.5 |
| 20260509204919 | 23 | 0 | 0.0 | 3.2 | 0.00 | 4.04 | 4.04 | 85 | 1011.6 |
| 20260509204419 | 22 | 0 | 1.6 | 6.4 | 0.00 | 4.04 | 4.04 | 86 | 1011.5 |
| 20260509203905 | 22 | 39 | 1.6 | 6.4 | 0.00 | 4.04 | 4.04 | 86 | 1011.8 |
| 20260509203404 | 22 | 24 | 1.6 | 4.8 | 0.00 | 4.04 | 4.04 | 87 | 1011.7 |
| 20260509203128 | 22 | 27 | 1.6 | 4.8 | 0.00 | 4.04 | 4.04 | 89 | 1011.9 |
| 20260509202404 | 22 | 27 | 1.6 | 4.8 | 0.00 | 4.04 | 4.04 | 87 | 1012.0 |
| 20260509201904 | 22 | 354 | 1.6 | 4.8 | 0.00 | 4.04 | 4.04 | 88 | 1011.9 |
| 20260509201406 | 22 | 0 | 1.6 | 4.8 | 0.00 | 4.04 | 4.04 | 87 | 1012.2 |
| 20260509200853 | 22 | 308 | 1.6 | 3.2 | 0.00 | 4.04 | 4.04 | 89 | 1012.0 |
| 20260509200405 | 22 | 62 | 0.0 | 3.2 | 0.00 | 4.04 | 4.04 | 88 | 1012.0 |
| 20260509195852 | 22 | 0 | 1.6 | 4.8 | 0.00 | 4.04 | 4.04 | 87 | 1012.2 |
| 20260509195353 | 22 | 24 | 3.2 | 4.8 | 0.00 | 4.04 | 4.04 | 87 | 1012.3 |
| 20260509194854 | 22 | 24 | 1.6 | 4.8 | 0.00 | 4.04 | 4.04 | 87 | 1012.5 |
| 20260509194543 | 22 | 357 | 3.2 | 6.4 | 0.00 | 4.04 | 4.04 | 88 | 1012.3 |
| 20260509194539 | 23 | 50 | 1.6 | 8.0 | 0.00 | 4.04 | 4.04 | 85 | 1012.3 |
| 20260509194516 | 22 | 243 | 0.0 | 3.2 | 0.00 | 4.04 | 4.04 | 90 | 1012.1 |
| 20260509194417 | 22 | 0 | 1.6 | 4.8 | 0.00 | 4.04 | 4.04 | 88 | 1012.3 |
| 20260509194121 | 22 | 39 | 3.2 | 6.4 | 0.00 | 4.04 | 4.04 | 86 | 1012.4 |
| 20260509192353 | 23 | 50 | 1.6 | 8.0 | 0.00 | 4.04 | 4.04 | 85 | 1012.3 |
| 20260509191850 | 23 | 45 | 1.6 | 8.0 | 0.00 | 4.04 | 4.04 | 86 | 1012.1 |
| 20260509191348 | 22 | 0 | 3.2 | 8.0 | 0.00 | 4.04 | 4.04 | 85 | 1012.2 |
| 20260509190836 | 22 | 39 | 3.2 | 12.9 | 0.00 | 4.04 | 4.04 | 87 | 1012.1 |
| 20260509190553 | 22 | 265 | 3.2 | 12.9 | 0.00 | 4.04 | 4.04 | 88 | 1012.3 |
| 20260509185820 | 22 | 51 | 1.6 | 4.8 | 0.00 | 4.04 | 4.04 | 88 | 1012.0 |
| 20260509185309 | 22 | 0 | 1.6 | 4.8 | 0.00 | 4.04 | 4.04 | 91 | 1012.1 |
| 20260509184806 | 22 | 33 | 1.6 | 4.8 | 0.00 | 4.04 | 4.04 | 90 | 1012.5 |
| 20260509184305 | 22 | 0 | 0.0 | 1.6 | 0.00 | 4.04 | 4.04 | 92 | 1012.3 |
| 20260509183806 | 22 | 0 | 0.0 | 0.0 | 0.00 | 4.04 | 4.04 | 91 | 1012.5 |
| 20260509183306 | 22 | 0 | 0.0 | 0.0 | 0.00 | 4.04 | 4.04 | 92 | 1012.4 |
| 20260509183029 | 22 | 0 | 0.0 | 1.6 | 0.00 | 4.04 | 4.04 | 90 | 1012.6 |
| 20260509182526 | 22 | 12 | 0.0 | 1.6 | 0.00 | 4.04 | 4.04 | 89 | 1012.7 |
| 20260509181807 | 22 | 234 | 0.0 | 1.6 | 0.00 | 4.04 | 4.04 | 90 | 1012.6 |
| 20260509181307 | 22 | 0 | 0.0 | 3.2 | 0.00 | 4.04 | 4.04 | 89 | 1012.6 |
| 20260509180806 | 22 | 0 | 0.0 | 3.2 | 0.00 | 4.04 | 4.04 | 90 | 1012.5 |
| 20260509180305 | 22 | 0 | 0.0 | 3.2 | 0.00 | 4.04 | 4.04 | 90 | 1012.4 |
| 20260509175806 | 22 | 0 | 0.0 | 3.2 | 0.00 | 4.04 | 4.04 | 91 | 1012.5 |
| 20260509175307 | 22 | 0 | 1.6 | 4.8 | 0.00 | 4.04 | 4.04 | 89 | 1012.7 |
| 20260509174806 | 22 | 31 | 0.0 | 4.8 | 0.00 | 4.04 | 4.04 | 88 | 1012.7 |
| 20260509174307 | 22 | 0 | 0.0 | 1.6 | 0.00 | 4.04 | 4.04 | 87 | 1012.8 |
| 20260509173751 | 22 | 29 | 0.0 | 4.8 | 0.00 | 4.04 | 4.04 | 88 | 1012.8 |
| 20260509173254 | 22 | 277 | 0.0 | 4.8 | 0.00 | 4.04 | 4.04 | 90 | 1012.8 |
| 20260509172754 | 22 | 0 | 1.6 | 4.8 | 0.00 | 4.04 | 4.04 | 89 | 1012.9 |
| 20260509172255 | 22 | 0 | 3.2 | 6.4 | 0.00 | 4.04 | 4.04 | 89 | 1013.0 |
| 20260509171755 | 22 | 50 | 3.2 | 6.4 | 0.00 | 4.04 | 4.04 | 87 | 1013.0 |
| 20260509171255 | 22 | 12 | 1.6 | 4.8 | 0.00 | 4.04 | 4.04 | 88 | 1013.0 |
| 20260509170755 | 22 | 31 | 1.6 | 4.8 | 0.00 | 4.04 | 4.04 | 88 | 1013.0 |
| 20260509170513 | 22 | 0 | 0.0 | 4.8 | 0.00 | 4.04 | 4.04 | 87 | 1013.1 |
| 20260509165754 | 22 | 269 | 0.0 | 4.8 | 0.00 | 4.04 | 4.04 | 89 | 1013.1 |
| 20260509165522 | 22 | 328 | 1.6 | 4.8 | 0.00 | 4.04 | 4.04 | 89 | 1013.2 |
| 20260509164754 | 22 | 0 | 1.6 | 4.8 | 0.00 | 4.04 | 4.04 | 88 | 1013.4 |
| 20260509164501 | 22 | 25 | 0.0 | 3.2 | 0.00 | 4.04 | 4.04 | 89 | 1013.2 |
| 20260509163724 | 22 | 333 | 0.0 | 1.6 | 0.00 | 4.04 | 4.04 | 90 | 1013.2 |
| 20260509163223 | 22 | 0 | 0.0 | 1.6 | 0.00 | 4.04 | 4.04 | 91 | 1013.1 |
| 20260509162724 | 21 | 0 | 0.0 | 3.2 | 0.00 | 4.04 | 4.04 | 90 | 1013.1 |
| 20260509162209 | 21 | 238 | 1.6 | 3.2 | 0.00 | 4.04 | 4.04 | 92 | 1013.0 |
| 20260509161925 | 21 | 0 | 1.6 | 4.8 | 0.00 | 4.04 | 4.04 | 93 | 1012.9 |
| 20260509161152 | 21 | 44 | 1.6 | 8.0 | 0.00 | 4.04 | 4.04 | 93 | 1013.0 |
| 20260509160653 | 21 | 33 | 1.6 | 8.0 | 0.00 | 4.04 | 4.04 | 92 | 1012.9 |
| 20260509160152 | 21 | 0 | 0.0 | 3.2 | 0.00 | 4.04 | 4.04 | 94 | 1012.8 |
| 20260509155912 | 20 | 0 | 1.6 | 3.2 | 0.00 | 4.04 | 4.04 | 95 | 1012.9 |
| 20260509155152 | 20 | 0 | 1.6 | 3.2 | 0.00 | 4.04 | 4.04 | 95 | 1013.0 |
| 20260509154652 | 21 | 31 | 0.0 | 3.2 | 0.00 | 4.04 | 4.04 | 95 | 1013.0 |
| 20260509154633 | 21 | 30 | 0.0 | 3.2 | 0.00 | 4.04 | 4.04 | 93 | 1013.1 |
| 20260509153654 | 21 | 304 | 0.0 | 3.2 | 0.00 | 4.04 | 4.04 | 94 | 1012.8 |
| 20260509153151 | 20 | 0 | 0.0 | 1.6 | 0.00 | 4.04 | 4.04 | 95 | 1012.8 |
| 20260509152652 | 20 | 0 | 0.0 | 1.6 | 0.00 | 4.04 | 4.04 | 95 | 1012.8 |
| 20260509152152 | 20 | 0 | 0.0 | 0.0 | 0.00 | 4.04 | 4.04 | 96 | 1012.8 |
| 20260509151652 | 20 | 0 | 0.0 | 0.0 | 0.00 | 4.04 | 4.04 | 95 | 1012.9 |
| 20260509151413 | 20 | 0 | 0.0 | 0.0 | 0.00 | 4.04 | 4.04 | 94 | 1012.9 |
| 20260509150914 | 20 | 0 | 0.0 | 0.0 | 0.00 | 4.04 | 4.04 | 94 | 1012.9 |
| 20260509150139 | 20 | 0 | 0.0 | 1.6 | 0.00 | 4.04 | 4.04 | 94 | 1012.8 |
| 20260509145639 | 20 | 0 | 0.0 | 1.6 | 0.00 | 4.04 | 4.04 | 95 | 1012.7 |
| 20260509145139 | 20 | 0 | 0.0 | 0.0 | 0.00 | 4.04 | 4.04 | 95 | 1012.7 |
| 20260509144639 | 20 | 0 | 0.0 | 1.6 | 0.00 | 4.04 | 4.04 | 95 | 1012.6 |
| 20260509144139 | 20 | 0 | 0.0 | 1.6 | 0.00 | 4.04 | 4.04 | 95 | 1012.6 |
| 20260509143638 | 20 | 0 | 0.0 | 1.6 | 0.00 | 4.04 | 4.04 | 96 | 1012.8 |
| 20260509143138 | 20 | 0 | 0.0 | 1.6 | 0.00 | 4.04 | 4.04 | 96 | 1012.8 |
| 20260509142901 | 20 | 283 | 0.0 | 1.6 | 0.00 | 4.04 | 4.04 | 97 | 1012.7 |
| 20260509142139 | 20 | 0 | 0.0 | 0.0 | 0.00 | 4.04 | 4.04 | 97 | 1012.7 |
| 20260509141640 | 20 | 0 | 0.0 | 0.0 | 0.00 | 4.04 | 4.04 | 97 | 1012.9 |
| 20260509141402 | 20 | 0 | 0.0 | 4.8 | 0.00 | 4.04 | 4.04 | 97 | 1013.1 |
| 20260509140639 | 20 | 0 | 1.6 | 4.8 | 0.00 | 4.04 | 4.04 | 97 | 1013.2 |
| 20260509140348 | 20 | 332 | 1.6 | 4.8 | 0.00 | 4.04 | 4.04 | 97 | 1013.3 |
| 20260509135625 | 19 | 345 | 1.6 | 4.8 | 0.00 | 4.04 | 4.04 | 98 | 1013.3 |
| 20260509135129 | 19 | 0 | 0.0 | 3.2 | 0.00 | 4.04 | 4.04 | 98 | 1013.3 |
| 20260509134615 | 19 | 311 | 0.0 | 3.2 | 0.00 | 4.04 | 4.04 | 98 | 1013.3 |
| 20260509134110 | 19 | 0 | 0.0 | 3.2 | 0.00 | 4.04 | 4.04 | 98 | 1013.6 |
| 20260509133610 | 19 | 0 | 0.0 | 1.6 | 0.00 | 4.04 | 4.04 | 98 | 1013.5 |
| 20260509133110 | 19 | 328 | 0.0 | 1.6 | 0.00 | 4.04 | 4.04 | 98 | 1013.5 |
| 20260509132612 | 19 | 0 | 0.0 | 0.0 | 0.00 | 4.04 | 4.04 | 98 | 1013.4 |
| 20260509132110 | 19 | 0 | 0.0 | 3.2 | 0.00 | 4.04 | 4.04 | 98 | 1013.5 |
| 20260509131610 | 19 | 11 | 0.0 | 3.2 | 0.00 | 4.04 | 4.04 | 98 | 1013.5 |
| 20260509131109 | 19 | 0 | 0.0 | 0.0 | 0.00 | 4.04 | 4.04 | 98 | 1013.5 |
| 20260509130609 | 19 | 0 | 0.0 | 0.0 | 0.00 | 4.04 | 4.04 | 98 | 1013.6 |
| 20260509130112 | 19 | 0 | 0.0 | 0.0 | 0.00 | 4.04 | 4.04 | 98 | 1013.6 |
| 20260509125829 | 19 | 0 | 0.0 | 0.0 | 0.00 | 4.04 | 4.04 | 98 | 1013.6 |
| 20260509125123 | 19 | 0 | 0.0 | 0.0 | 0.00 | 4.04 | 4.04 | 98 | 1013.5 |
| 20260509124610 | 19 | 0 | 0.0 | 3.2 | 0.00 | 4.04 | 4.04 | 98 | 1013.6 |
| 20260509124110 | 18 | 0 | 1.6 | 3.2 | 0.00 | 4.04 | 4.04 | 98 | 1013.7 |
| 20260509123610 | 18 | 0 | 1.6 | 3.2 | 0.00 | 4.04 | 4.04 | 98 | 1013.4 |
| 20260509123054 | 18 | 333 | 1.6 | 3.2 | 0.00 | 4.04 | 4.04 | 98 | 1013.5 |
| 20260509122554 | 18 | 323 | 1.6 | 4.8 | 0.00 | 4.04 | 4.04 | 98 | 1013.1 |
| 20260509122054 | 18 | 0 | 3.2 | 4.8 | 0.00 | 4.04 | 4.04 | 98 | 1012.7 |
| 20260509121554 | 18 | 1 | 3.2 | 4.8 | 0.00 | 4.04 | 4.04 | 98 | 1012.4 |
| 20260509121055 | 18 | 358 | 3.2 | 4.8 | 0.00 | 4.04 | 4.04 | 98 | 1012.2 |
| 20260509120555 | 18 | 321 | 1.6 | 3.2 | 0.00 | 4.04 | 4.04 | 98 | 1012.0 |
| 20260509120055 | 18 | 220 | 1.6 | 4.8 | 0.05 | 4.04 | 4.04 | 98 | 1011.6 |
| 20260509115554 | 18 | 51 | 3.2 | 6.4 | 0.10 | 4.04 | 4.04 | 98 | 1011.8 |
| 20260509115054 | 18 | 352 | 3.2 | 11.3 | 0.20 | 4.04 | 4.04 | 98 | 1011.8 |
| 20260509114554 | 18 | 13 | 4.8 | 12.9 | 0.28 | 4.04 | 4.04 | 98 | 1011.7 |
| 20260509114054 | 18 | 318 | 6.4 | 12.9 | 0.33 | 4.04 | 4.04 | 98 | 1011.6 |
| 20260509113559 | 18 | 6 | 3.2 | 8.0 | 0.38 | 4.04 | 4.04 | 98 | 1010.7 |
| 20260509113538 | 18 | 326 | 1.6 | 4.8 | 0.43 | 4.04 | 4.04 | 98 | 1010.1 |
| 20260509112559 | 18 | 15 | 1.6 | 6.4 | 0.48 | 4.04 | 4.04 | 98 | 1009.8 |
| 20260509112059 | 18 | 337 | 3.2 | 8.0 | 0.53 | 4.04 | 4.04 | 98 | 1009.8 |
| 20260509112047 | 18 | 43 | 3.2 | 8.0 | 0.56 | 4.04 | 4.04 | 98 | 1009.8 |
| 20260509111055 | 18 | 79 | 3.2 | 6.4 | 0.56 | 4.04 | 4.04 | 98 | 1009.9 |
| 20260509110559 | 18 | 0 | 1.6 | 3.2 | 0.56 | 4.01 | 4.01 | 98 | 1010.4 |
| 20260509110042 | 18 | 45 | 0.0 | 3.2 | 0.53 | 3.99 | 3.99 | 98 | 1010.9 |
| 20260509105542 | 18 | 0 | 0.0 | 1.6 | 0.48 | 3.91 | 3.91 | 98 | 1011.4 |
| 20260509105041 | 18 | 0 | 0.0 | 1.6 | 0.48 | 3.84 | 3.84 | 98 | 1012.3 |